| time (UTC) | temp F | wind direction | speed knots | gust knots | rain 1hr in | rain 24hr in | rain mn in | humidity % | barometer mb |
| 20260506122016 | 46 | 0 | 2.6 | 5.2 | 0.00 | 1.42 | 0.48 | 98 | 1008.4 |
| 20260506121017 | 45 | 23 | 2.6 | 6.1 | 0.00 | 1.42 | 0.48 | 98 | 1008.1 |
| 20260506120016 | 45 | 23 | 2.6 | 6.1 | 0.00 | 1.42 | 0.48 | 98 | 1008.3 |
| 20260506115016 | 45 | 0 | 1.7 | 5.2 | 0.00 | 1.42 | 0.48 | 98 | 1008.2 |
| 20260506114016 | 45 | 0 | 1.7 | 4.3 | 0.00 | 1.42 | 0.48 | 98 | 1008.5 |
| 20260506113016 | 45 | 0 | 2.6 | 5.2 | 0.00 | 1.42 | 0.48 | 98 | 1008.1 |
| 20260506112016 | 45 | 45 | 1.7 | 4.3 | 0.00 | 1.42 | 0.48 | 98 | 1007.8 |
| 20260506111016 | 45 | 0 | 3.5 | 6.1 | 0.00 | 1.42 | 0.48 | 98 | 1007.8 |
| 20260506110036 | 45 | 0 | 3.5 | 6.1 | 0.00 | 1.42 | 0.48 | 98 | 1008.0 |
| 20260506105016 | 45 | 0 | 3.5 | 7.0 | 0.00 | 1.42 | 0.48 | 98 | 1007.6 |
| 20260506103036 | 45 | 0 | 0.9 | 3.5 | 0.01 | 1.42 | 0.48 | 98 | 1006.6 |
| 20260506102016 | 45 | 0 | 0.9 | 2.6 | 0.02 | 1.42 | 0.48 | 98 | 1006.7 |
| 20260506101036 | 45 | 23 | 1.7 | 5.2 | 0.03 | 1.42 | 0.48 | 98 | 1006.7 |
| 20260506100016 | 45 | 23 | 0.9 | 2.6 | 0.05 | 1.42 | 0.48 | 98 | 1006.2 |
| 20260506095016 | 45 | 0 | 0.9 | 4.3 | 0.05 | 1.42 | 0.48 | 98 | 1006.6 |
| 20260506094036 | 45 | 0 | 2.6 | 5.2 | 0.04 | 1.41 | 0.47 | 98 | 1007.0 |
| 20260506093016 | 45 | 23 | 0.9 | 3.5 | 0.04 | 1.41 | 0.47 | 98 | 1007.4 |
| 20260506092016 | 45 | 23 | 1.7 | 3.5 | 0.04 | 1.40 | 0.46 | 98 | 1007.3 |
| 20260506091016 | 45 | 23 | 1.7 | 4.3 | 0.05 | 1.39 | 0.45 | 98 | 1007.2 |
| 20260506090016 | 45 | 23 | 1.7 | 3.5 | 0.05 | 1.37 | 0.43 | 98 | 1007.1 |
| 20260506085016 | 45 | 23 | 1.7 | 3.5 | 0.07 | 1.37 | 0.43 | 98 | 1007.1 |
| 20260506084016 | 45 | 23 | 2.6 | 5.2 | 0.10 | 1.37 | 0.43 | 98 | 1007.0 |
| 20260506083016 | 44 | 0 | 3.5 | 7.0 | 0.13 | 1.37 | 0.43 | 98 | 1006.9 |
| 20260506082036 | 44 | 0 | 4.3 | 7.0 | 0.14 | 1.36 | 0.42 | 98 | 1007.0 |
| 20260506081016 | 45 | 23 | 4.3 | 7.8 | 0.14 | 1.34 | 0.40 | 98 | 1007.0 |
| 20260506073016 | 45 | 23 | 2.6 | 4.3 | 0.10 | 1.24 | 0.30 | 98 | 1007.1 |
| 20260506072016 | 45 | 23 | 2.6 | 4.3 | 0.10 | 1.22 | 0.28 | 98 | 1006.9 |
| 20260506071016 | 45 | 0 | 3.5 | 7.8 | 0.09 | 1.20 | 0.26 | 98 | 1006.7 |
| 20260506062016 | 45 | 23 | 1.7 | 4.3 | 0.08 | 1.12 | 0.18 | 98 | 1006.6 |
| 20260506061016 | 46 | 0 | 2.6 | 6.1 | 0.09 | 1.11 | 0.17 | 98 | 1006.8 |
| 20260506051015 | 48 | 0 | 1.7 | 6.1 | 0.06 | 1.02 | 0.08 | 98 | 1007.5 |
| 20260506045016 | 48 | 0.0 | 0.9 | 0.07 | 1.00 | 0.06 | 98 | 1007.4 | |
| 20260506044015 | 48 | 23 | 1.7 | 3.5 | 0.07 | 0.99 | 0.05 | 98 | 1007.6 |
| 20260506043016 | 48 | 23 | 0.9 | 6.1 | 0.08 | 0.98 | 0.04 | 98 | 1007.7 |
| 20260506042016 | 48 | 45 | 1.7 | 4.3 | 0.07 | 0.96 | 0.02 | 98 | 1007.8 |
| 20260506041016 | 49 | 0 | 2.6 | 5.2 | 0.08 | 0.96 | 0.02 | 98 | 1007.9 |
| 20260506040016 | 49 | 338 | 1.7 | 7.0 | 0.07 | 0.94 | 0.94 | 98 | 1007.8 |
| 20260506035017 | 49 | 0 | 2.6 | 5.2 | 0.06 | 0.93 | 0.93 | 98 | 1008.1 |
| 20260506034017 | 49 | 0 | 2.6 | 7.0 | 0.07 | 0.92 | 0.92 | 98 | 1008.2 |
| 20260506033017 | 49 | 0 | 2.6 | 5.2 | 0.06 | 0.90 | 0.90 | 98 | 1008.0 |
| 20260506032017 | 49 | 23 | 1.7 | 5.2 | 0.08 | 0.89 | 0.89 | 98 | 1008.0 |
| 20260506031017 | 49 | 23 | 2.6 | 5.2 | 0.11 | 0.88 | 0.88 | 98 | 1008.0 |
| 20260506030017 | 49 | 23 | 0.9 | 3.5 | 0.15 | 0.87 | 0.87 | 98 | 1007.9 |
| 20260506025017 | 49 | 23 | 2.6 | 6.1 | 0.19 | 0.87 | 0.87 | 98 | 1008.2 |
| 20260506024017 | 49 | 0 | 2.6 | 6.1 | 0.21 | 0.85 | 0.85 | 98 | 1008.6 |
| 20260506023017 | 49 | 0.0 | 2.6 | 0.24 | 0.84 | 0.84 | 98 | 1008.5 | |
| 20260506022016 | 49 | 23 | 1.7 | 5.2 | 0.25 | 0.81 | 0.81 | 98 | 1008.7 |
| 20260506021016 | 49 | 23 | 2.6 | 7.8 | 0.25 | 0.77 | 0.77 | 98 | 1007.7 |
| 20260506020017 | 50 | 23 | 0.9 | 4.3 | 0.24 | 0.72 | 0.72 | 98 | 1007.4 |
| 20260506015017 | 50 | 23 | 1.7 | 4.3 | 0.24 | 0.68 | 0.68 | 98 | 1007.4 |
| 20260506014017 | 51 | 23 | 0.9 | 4.3 | 0.24 | 0.64 | 0.64 | 98 | 1007.4 |
| 20260506013037 | 51 | 23 | 2.6 | 5.2 | 0.21 | 0.60 | 0.60 | 98 | 1007.3 |
| 20260506012016 | 51 | 0 | 1.7 | 4.3 | 0.18 | 0.56 | 0.56 | 98 | 1007.1 |
| 20260506011017 | 52 | 0.0 | 1.7 | 0.15 | 0.52 | 0.52 | 98 | 1007.0 | |
| 20260506010017 | 52 | 0.0 | 1.7 | 0.11 | 0.48 | 0.48 | 98 | 1006.8 | |
| 20260506005017 | 53 | 0.0 | 2.6 | 0.07 | 0.44 | 0.44 | 98 | 1006.7 | |
| 20260506004017 | 53 | 23 | 0.9 | 4.3 | 0.03 | 0.40 | 0.40 | 98 | 1006.8 |
| 20260506003016 | 53 | 45 | 0.9 | 3.5 | 0.04 | 0.39 | 0.39 | 98 | 1006.6 |
| 20260506002016 | 54 | 0.0 | 2.6 | 0.06 | 0.38 | 0.38 | 98 | 1006.7 | |
| 20260506001016 | 54 | 0.0 | 1.7 | 0.08 | 0.37 | 0.37 | 97 | 1006.9 | |
| 20260506000016 | 55 | 45 | 1.7 | 6.1 | 0.14 | 0.37 | 0.37 | 97 | 1006.6 |
| 20260505235016 | 56 | 0.0 | 0.0 | 0.25 | 0.37 | 0.37 | 98 | 1006.7 | |
| 20260505234016 | 56 | 0.0 | 0.0 | 0.31 | 0.37 | 0.37 | 97 | 1006.9 | |
| 20260505233017 | 56 | 0.0 | 0.0 | 0.30 | 0.35 | 0.35 | 97 | 1007.1 | |
| 20260505232017 | 56 | 0.0 | 0.0 | 0.27 | 0.32 | 0.32 | 97 | 1007.1 | |
| 20260505231016 | 57 | 0.0 | 0.9 | 0.24 | 0.29 | 0.29 | 97 | 1007.3 | |
| 20260505230016 | 57 | 23 | 0.9 | 4.3 | 0.18 | 0.23 | 0.23 | 97 | 1007.2 |
| 20260505225016 | 57 | 270 | 0.9 | 5.2 | 0.07 | 0.12 | 0.12 | 96 | 1007.4 |
| 20260505224017 | 58 | 0.0 | 0.0 | 0.01 | 0.06 | 0.06 | 95 | 1007.0 | |
| 20260505223016 | 58 | 0.0 | 0.0 | 0.00 | 0.05 | 0.05 | 95 | 1006.8 | |
| 20260505222017 | 58 | 0.0 | 0.0 | 0.00 | 0.05 | 0.05 | 95 | 1006.8 | |
| 20260505221016 | 58 | 0.0 | 0.0 | 0.00 | 0.05 | 0.05 | 95 | 1006.5 | |
| 20260505220016 | 58 | 0.0 | 2.6 | 0.00 | 0.05 | 0.05 | 95 | 1007.0 | |
| 20260505215017 | 58 | 0.0 | 0.9 | 0.00 | 0.05 | 0.05 | 95 | 1006.9 | |
| 20260505214016 | 58 | 0 | 0.9 | 3.5 | 0.00 | 0.05 | 0.05 | 95 | 1007.0 |
| 20260505213016 | 59 | 0.0 | 0.9 | 0.01 | 0.05 | 0.05 | 95 | 1007.0 | |
| 20260505212016 | 59 | 0.0 | 3.5 | 0.01 | 0.05 | 0.05 | 95 | 1007.0 | |
| 20260505211036 | 59 | 0.0 | 3.5 | 0.05 | 0.05 | 0.05 | 94 | 1007.0 | |
| 20260505210016 | 58 | 0.0 | 1.7 | 0.05 | 0.05 | 0.05 | 94 | 1007.1 | |
| 20260505205016 | 59 | 0.0 | 0.0 | 0.05 | 0.05 | 0.05 | 93 | 1007.2 | |
| 20260505204036 | 59 | 0 | 0.9 | 3.5 | 0.05 | 0.05 | 0.05 | 92 | 1007.1 |
| 20260505203016 | 60 | 0.0 | 0.0 | 0.04 | 0.04 | 0.04 | 91 | 1007.3 | |
| 20260505202016 | 61 | 0.0 | 0.9 | 0.04 | 0.04 | 0.04 | 88 | 1007.2 | |
| 20260505201016 | 63 | 293 | 0.9 | 3.5 | 0.00 | 0.00 | 0.00 | 85 | 1007.2 |
| 20260505200016 | 63 | 0.0 | 0.0 | 0.00 | 0.00 | 0.00 | 85 | 1006.8 | |
| 20260505195036 | 64 | 0.0 | 0.9 | 0.00 | 0.00 | 0.00 | 82 | 1007.1 | |
| 20260505194016 | 65 | 0.0 | 3.5 | 0.00 | 0.00 | 0.00 | 78 | 1007.2 | |
| 20260505193016 | 65 | 0.0 | 0.0 | 0.00 | 0.00 | 0.00 | 79 | 1007.3 | |
| 20260505192016 | 65 | 0.0 | 0.0 | 0.00 | 0.00 | 0.00 | 80 | 1007.3 | |
| 20260505191016 | 65 | 0.0 | 0.0 | 0.00 | 0.00 | 0.00 | 79 | 1007.4 | |
| 20260505190016 | 65 | 0.0 | 2.6 | 0.00 | 0.00 | 0.00 | 79 | 1007.4 | |
| 20260505185016 | 64 | 0.0 | 0.9 | 0.00 | 0.00 | 0.00 | 80 | 1007.6 | |
| 20260505184016 | 63 | 0.0 | 1.7 | 0.00 | 0.00 | 0.00 | 79 | 1007.7 | |
| 20260505183016 | 63 | 0.0 | 4.3 | 0.00 | 0.00 | 0.00 | 79 | 1007.8 | |
| 20260505182016 | 64 | 315 | 0.9 | 3.5 | 0.00 | 0.00 | 0.00 | 79 | 1007.9 |
| 20260505181016 | 64 | 270 | 0.9 | 5.2 | 0.00 | 0.00 | 0.00 | 78 | 1007.9 |
| 20260505180016 | 64 | 270 | 1.7 | 9.6 | 0.00 | 0.00 | 0.00 | 76 | 1007.6 |
| 20260505175016 | 64 | 270 | 3.5 | 7.8 | 0.00 | 0.00 | 0.00 | 75 | 1007.6 |
| 20260505174016 | 64 | 248 | 3.5 | 7.8 | 0.00 | 0.00 | 0.00 | 74 | 1007.4 |
| 20260505173017 | 65 | 270 | 4.3 | 11.3 | 0.00 | 0.00 | 0.00 | 72 | 1007.5 |
| 20260505172016 | 65 | 270 | 3.5 | 9.6 | 0.00 | 0.00 | 0.00 | 73 | 1007.4 |
| 20260505171016 | 66 | 270 | 3.5 | 8.7 | 0.00 | 0.00 | 0.00 | 71 | 1007.3 |
| 20260505170016 | 66 | 270 | 3.5 | 11.3 | 0.00 | 0.00 | 0.00 | 70 | 1007.4 |
| 20260505165016 | 67 | 293 | 3.5 | 9.6 | 0.00 | 0.00 | 0.00 | 68 | 1007.4 |
| 20260505164016 | 67 | 293 | 2.6 | 7.8 | 0.00 | 0.00 | 0.00 | 68 | 1007.3 |
| 20260505163016 | 67 | 248 | 1.7 | 8.7 | 0.00 | 0.00 | 0.00 | 68 | 1007.5 |
| 20260505162016 | 67 | 248 | 4.3 | 13.0 | 0.00 | 0.00 | 0.00 | 66 | 1007.4 |
| 20260505161036 | 68 | 270 | 2.6 | 7.0 | 0.00 | 0.00 | 0.00 | 68 | 1007.4 |
| 20260505153016 | 69 | 270 | 0.9 | 3.5 | 0.00 | 0.00 | 0.00 | 71 | 1006.7 |
| 20260505152036 | 68 | 203 | 2.6 | 8.7 | 0.00 | 0.00 | 0.00 | 70 | 1006.6 |
| 20260505151016 | 68 | 203 | 2.6 | 9.6 | 0.00 | 0.00 | 0.00 | 70 | 1006.9 |
| 20260505125016 | 60 | 203 | 1.7 | 3.5 | 0.00 | 0.00 | 0.00 | 83 | 1006.5 |
| 20260505124016 | 60 | 0.0 | 0.9 | 0.00 | 0.00 | 0.00 | 84 | 1006.6 | |
| 20260505123015 | 60 | 0.0 | 0.0 | 0.00 | 0.00 | 0.00 | 83 | 1006.5 |